Tracking 28790 objects as of 19-Apr-2024
HD Live streaming from Space Station
objects crossing your sky now

COSMOS 713

Track COSMOS 713 now!
10-day predictions
COSMOS 713 is classified as:


NORAD ID: 7680
Int'l Code: 1975-016C
Perigee: 1,402.0 km
Apogee: 1,494.2 km
Inclination: 74.0 °
Period: 114.7 minutes
Semi major axis: 7819 km
RCS: 0.6922 m2 (medium)
Launch date: February 28, 1975
Source: Commonwealth of Independent States (former USSR) (CIS)
Launch site: PLESETSK MISSILE AND SPACE COMPLEX (PKMTR)
Your satellite tracking list
Your tracking list is empty




NASA's NSSDC Master Catalog

Two Line Element Set (TLE):
1 07680U 75016C   24109.85712113  .00000003  00000-0  11722-3 0  9993
2 07680  74.0074   0.4987 0058960 262.7703 167.5434 12.55654821252321
Source of the keplerian elements: AFSPC